[[{"header":{"parameterUnit":"m.s-1","parameterCategory":1,"la1":30.2991,"la2":30.254,"lo1":-89.0895,"lo2":-89.0444,"dy":0.0017,"dx":0.0017,"nx":28,"ny":28,"refTime":"2023-11-03T21:00:00:Z","depth":0,"parameterNumber":2,"parameterNumberName":"U-component_of_WINDS"},"data":[0,0,0,0,0,0,0,0,0,0,0,0,0,0,0,0,0,0,0,0,0,0,0,0,0,0,0,0,0,0,0,0,0,0,0,0,0,0,0,0,0,0,0,0,0,0,0,0,0,0,0,0,0,0,0,0,0,0,-2.918,-2.9181,0,-2.9221,-2.9222,-2.9222,-2.9151,-2.9148,-2.9146,-2.9143,-2.9185,-2.9188,-2.9191,0,0,0,0,0,0,0,0,0,0,0,0,0,-2.9038,-2.9041,-2.918,-2.9181,-2.9181,-2.9221,-2.9222,-2.9222,-2.9151,-2.9148,-2.9145,-2.9142,-2.9183,-2.9187,-2.9191,0,0,0,0,0,0,0,0,0,0,0,0,0,-2.9091,-2.9042,-2.918,-2.915,-2.9148,-2.9221,-2.9222,-2.9222,-2.9152,-2.9148,-2.9144,-2.9141,-2.9182,-2.9187,-2.9192,-2.9295,0,0,-2.9207,-2.9209,0,0,0,0,0,0,0,0,-2.9089,-2.9097,-2.9154,-2.9153,-2.915,-2.9177,-2.9187,-2.9247,-2.9153,-2.915,-2.9143,-2.9139,-2.9185,-2.9189,-2.9205,-2.9297,-2.9299,-2.9208,-2.9211,-2.9213,-2.9214,0,0,0,0,0,0,0,-2.9085,-2.9095,-2.9196,-2.9155,-2.9153,-2.9134,-2.9138,-2.9198,-2.9187,-2.915,-2.9145,-2.9151,-2.9183,-2.92,-2.9206,-2.93,-2.9208,-2.9212,-2.9215,-2.9217,-2.9478,-2.9481,0,0,0,0,0,0,-2.9085,-2.9092,-2.9195,-2.9197,-2.911,-2.914,-2.9144,-2.9172,-2.9187,-2.9185,-2.9154,-2.9148,-2.9194,-2.92,-2.9207,-2.9328,-2.9213,-2.9218,-2.922,-2.9474,-2.9479,-2.9483,0,0,0,0,0,0,-2.9082,-2.9095,-2.9193,-2.9143,-2.9155,-2.9146,-2.9178,-2.9175,-2.9192,-2.9189,-2.9187,-2.9174,-2.9191,-2.92,-2.9274,-2.9329,-2.922,-2.9224,-2.9469,-2.9475,-2.9481,-2.9573,0,0,0,0,0,0,-2.9078,-2.9094,-2.9134,-2.9145,-2.9157,-2.9261,-2.9182,-2.9178,-2.9201,-2.9193,-2.9207,-2.9206,-2.9189,-2.9267,-2.9279,-2.9334,-2.9228,-2.9464,-2.9472,-2.9479,-2.9565,-2.9581,-2.9595,0,0,0,0,0,-2.9074,-2.9158,-2.9136,-2.9149,-2.9207,-2.9264,-2.9271,-2.925,-2.9206,-2.9245,-2.9243,-2.9206,-2.9321,-2.9275,-2.9288,-2.9345,-2.9461,-2.947,-2.9478,-2.9558,-2.9578,-2.9595,0,0,0,0,0,0,-2.9154,-2.9159,-2.9135,-2.9226,-2.9245,-2.9252,-2.9301,-2.9271,-2.9303,-2.9294,-2.9266,-2.927,-2.9349,-2.9354,-2.9303,-2.9445,-2.9383,-2.9395,-2.944,-2.9458,-2.9473,-2.9471,-2.9232,0,0,0,0,0,-2.9182,-2.9229,-2.923,-2.931,-2.9321,-2.931,-2.9334,-2.9315,-2.9334,-2.9342,-2.9345,-2.9364,-2.9404,-2.9431,-2.9468,-2.9565,-2.9567,-2.9611,-2.9626,-2.9638,-2.9649,-2.97,-2.9719,-2.9512,-2.9512,-2.9511,0,0,-2.9241,-2.925,-2.9281,-2.9327,-2.9339,-2.9387,-2.9317,-2.9371,-2.9406,-2.9349,-2.942,-2.9423,-2.9442,-2.9528,-2.9566,-2.9535,-2.9707,-2.965,-2.9659,-2.9663,-2.9711,-2.9731,-2.9748,-2.9518,-2.9517,-2.9516,0,0,-2.9373,-2.9385,-2.9452,-2.9466,-2.9487,-2.9478,-2.9494,-2.9506,-2.9506,-2.9576,-2.9534,-2.9575,-2.9645,-2.9661,-2.9678,-2.9815,-2.9781,-2.9827,-2.9907,-2.9957,-2.9973,-2.9987,-3.0036,-3.0054,-2.9838,-2.9838,-2.9838,0,-2.9444,-2.9515,-2.9491,-2.9548,-2.9569,-2.952,-2.9588,-2.9602,-2.9634,-2.9649,-2.9613,-2.97,-2.971,-2.9798,-2.9832,-2.9847,-2.9864,-2.9826,-2.9973,-2.9987,-3.0,-3.0046,-3.0065,-2.9844,-2.9843,-2.9843,-2.9842,0,-2.9601,-2.9651,-2.9703,-2.9735,-2.9762,-2.9824,-2.9808,-2.9838,-2.9817,-2.9812,-2.9884,-2.9893,-2.9931,-2.9951,-2.9931,-3.0036,-3.0016,-2.9978,-2.9914,-3.0026,-3.0069,-3.0086,-2.9852,-2.985,-2.9848,-2.9847,0,0,-2.9786,-2.9803,-2.9822,-2.9836,-2.9854,-2.9892,-2.9951,-2.9988,-3.0015,-3.0037,-3.0086,-3.0146,-3.011,-3.0129,-3.0111,-3.0155,-3.0262,-3.011,-3.011,-3.0138,-3.0379,-3.0408,-3.0429,-3.024,-3.0243,-3.0246,-3.0377,0,-2.9918,-3.0021,-3.0,-3.0101,-3.0146,-3.01,-3.0151,-3.0168,-3.0165,-3.0202,-3.0198,-3.0241,-3.019,-3.0202,-3.0243,-3.0241,-3.031,-3.0231,-3.0285,-3.0287,-3.0282,-3.0452,-3.0483,-3.0607,-3.0394,-3.0397,-3.0399,0,-3.0085,-3.0114,-3.022,-3.023,-3.0248,-3.0295,-3.0327,-3.0364,-3.0381,-3.0376,-3.0397,-3.037,-3.0428,-3.0364,-3.0443,-3.039,-3.041,-3.0412,-3.0417,-3.0421,-3.035,-3.0461,-3.0646,-3.0665,-3.0425,-3.0423,-3.0421,0,-3.021,-3.0275,-3.0347,-3.036,-3.0373,-3.0407,-3.0415,-3.0428,-3.0452,-3.0479,-3.0494,-3.0528,-3.0547,-3.0574,-3.0556,-3.0511,-3.0639,-3.0573,-3.0635,-3.0636,-3.0665,-3.0663,-3.0856,-3.0678,-3.0678,-3.0677,-3.0677,0,-3.0359,-3.0425,-3.0403,-3.0447,-3.0519,-3.0494,-3.0566,-3.0568,-3.058,-3.0623,-3.0585,-3.0626,-3.06,-3.0639,-3.0625,-3.0693,-3.0702,-3.0699,-3.0694,-3.0702,-3.0703,-3.0716,-3.0707,-3.0682,-3.0681,-3.068,-3.0679,0,-3.0511,-3.0498,-3.0573,-3.058,-3.0583,-3.0636,-3.0642,-3.0682,-3.0676,-3.0731,-3.0742,-3.0732,-3.0775,-3.076,-3.0807,-3.0797,-3.0884,-3.0868,-3.0878,-3.0875,-3.0938,-3.0932,-3.1146,-3.1172,-3.0977,-3.0979,-3.0981,0,-3.0607,-3.0657,-3.0669,-3.0695,-3.0705,-3.0748,-3.0772,-3.0748,-3.0774,-3.0797,-3.0835,-3.0875,-3.0906,-3.0978,-3.0974,-3.1009,-3.0994,-3.1067,-3.1,-3.1006,-3.0996,-3.0993,-3.0998,-3.1081,-3.1083,-3.1085,-3.1086,0,-3.078,-3.0771,-3.0807,-3.0841,-3.087,-3.0895,-3.0917,-3.0941,-3.0918,-3.0949,-3.0993,-3.1018,-3.1065,-3.1105,-3.1137,-3.1143,-3.1111,-3.1107,-3.1123,-3.1133,-3.1137,-3.1135,-3.0915,-3.1103,-3.1101,-3.11,-3.1099,-3.1098,-3.0907,-3.0949,-3.0964,-3.1005,-3.1019,-3.104,-3.1078,-3.1076,-3.1113,-3.115,-3.1133,-3.1184,-3.1199,-3.1238,-3.1249,-3.1288,-3.126,-3.1284,-3.129,-3.1296,-3.1304,-3.113,-3.1294,-3.1293,-3.1293,-3.1292,-3.1292,0,-3.1078,-3.1085,-3.1123,-3.1154,-3.1186,-3.1153,-3.1175,-3.1204,-3.125,-3.1266,-3.1297,-3.1348,-3.1386,-3.1386,-3.1421,-3.1453,-3.1439,-3.1463,-3.146,-3.1462,-3.1327,-3.131,-3.1473,-3.1473,-3.1473,-3.1473,-3.1473,-3.1473,-3.117,-3.124,-3.1232,-3.1308,-3.1314,-3.1364,-3.1379,-3.1398,-3.1411,-3.1469,-3.1501,-3.15,-3.151,-3.1546,-3.1579,-3.1578,-3.1593,-3.1623,-3.1616,-3.149,-3.1472,-3.1455,-3.1438,-3.1626,-3.1626,-3.1748,-3.1749,-3.175]},{"header":{"parameterUnit":"m.s-1","parameterCategory":1,"la1":30.2991,"la2":30.254,"lo1":-89.0895,"lo2":-89.0444,"dy":0.0017,"dx":0.0017,"nx":28,"ny":28,"refTime":"2023-11-03T21:00:00:Z","depth":0,"parameterNumber":3,"parameterNumberName":"V-component_of_WINDS"},"data":[0,0,0,0,0,0,0,0,0,0,0,0,0,0,0,0,0,0,0,0,0,0,0,0,0,0,0,0,0,0,0,0,0,0,0,0,0,0,0,0,0,0,0,0,0,0,0,0,0,0,0,0,0,0,0,0,0,0,-0.4406,-0.4409,0,-0.4602,-0.4604,-0.4607,-0.4688,-0.4688,-0.4687,-0.4687,-0.4885,-0.4891,-0.4896,0,0,0,0,0,0,0,0,0,0,0,0,0,-0.41,-0.4105,-0.4406,-0.4409,-0.4411,-0.4602,-0.4604,-0.4607,-0.4688,-0.4688,-0.4687,-0.4687,-0.4883,-0.489,-0.4897,0,0,0,0,0,0,0,0,0,0,0,0,0,-0.4258,-0.4107,-0.4406,-0.4475,-0.4483,-0.4601,-0.4605,-0.4608,-0.4688,-0.4688,-0.4687,-0.4686,-0.4881,-0.4889,-0.4898,-0.4962,0,0,-0.4924,-0.4927,0,0,0,0,0,0,0,0,-0.4249,-0.4269,-0.4462,-0.447,-0.4479,-0.462,-0.4569,-0.4726,-0.4688,-0.461,-0.4687,-0.4686,-0.4797,-0.4813,-0.4851,-0.4971,-0.498,-0.4924,-0.4929,-0.4933,-0.4936,0,0,0,0,0,0,0,-0.4238,-0.4261,-0.4484,-0.4465,-0.4475,-0.4495,-0.4516,-0.4599,-0.4704,-0.4617,-0.4623,-0.4645,-0.4802,-0.4842,-0.4856,-0.4983,-0.4924,-0.4932,-0.4937,-0.494,-0.5165,-0.5166,0,0,0,0,0,0,-0.4216,-0.4251,-0.4478,-0.449,-0.436,-0.4501,-0.4525,-0.4575,-0.4704,-0.4723,-0.4646,-0.4648,-0.4828,-0.4846,-0.4863,-0.4948,-0.4933,-0.4941,-0.4946,-0.5164,-0.5165,-0.5166,0,0,0,0,0,0,-0.4209,-0.4235,-0.447,-0.4372,-0.4404,-0.4507,-0.4562,-0.458,-0.462,-0.4726,-0.4745,-0.4668,-0.4828,-0.4851,-0.4937,-0.4955,-0.4945,-0.4953,-0.5163,-0.5164,-0.5166,-0.5116,0,0,0,0,0,0,-0.42,-0.4232,-0.4259,-0.4372,-0.4409,-0.4541,-0.4564,-0.4584,-0.4635,-0.464,-0.4752,-0.4769,-0.483,-0.4924,-0.4945,-0.4967,-0.4959,-0.5162,-0.5164,-0.5165,-0.5116,-0.5115,-0.5114,0,0,0,0,0,-0.4189,-0.4236,-0.4259,-0.4286,-0.4444,-0.4542,-0.4562,-0.4631,-0.4636,-0.4663,-0.473,-0.4766,-0.4949,-0.4932,-0.4957,-0.4981,-0.5161,-0.5163,-0.5165,-0.5117,-0.5115,-0.5114,0,0,0,0,0,0,-0.4122,-0.4252,-0.428,-0.4366,-0.4442,-0.4555,-0.4592,-0.4628,-0.4704,-0.4706,-0.4787,-0.4812,-0.489,-0.4944,-0.4922,-0.505,-0.5058,-0.5065,-0.5012,-0.5012,-0.5011,-0.4997,-0.4966,0,0,0,0,0,-0.4117,-0.4186,-0.4296,-0.4362,-0.4399,-0.4488,-0.4533,-0.458,-0.4662,-0.4694,-0.4768,-0.4846,-0.4921,-0.4969,-0.5044,-0.5123,-0.5149,-0.5152,-0.5151,-0.515,-0.5156,-0.5201,-0.5204,-0.5173,-0.5173,-0.5173,0,0,-0.4108,-0.4188,-0.4227,-0.435,-0.4415,-0.4485,-0.4515,-0.4587,-0.464,-0.4705,-0.4792,-0.4848,-0.4939,-0.5022,-0.5062,-0.5069,-0.5169,-0.5152,-0.515,-0.5157,-0.5204,-0.5207,-0.5209,-0.5174,-0.5174,-0.5174,0,0,-0.4128,-0.4195,-0.4257,-0.4321,-0.4418,-0.4477,-0.4492,-0.4599,-0.464,-0.4727,-0.4778,-0.484,-0.4968,-0.5032,-0.508,-0.5122,-0.5157,-0.5143,-0.5139,-0.5183,-0.5186,-0.5188,-0.5204,-0.5209,-0.5148,-0.5148,-0.5148,0,-0.4105,-0.4213,-0.4284,-0.4354,-0.4407,-0.4469,-0.4532,-0.459,-0.4706,-0.4741,-0.4747,-0.4908,-0.4974,-0.5073,-0.5083,-0.512,-0.5139,-0.5133,-0.518,-0.5183,-0.5187,-0.5203,-0.5208,-0.5146,-0.5146,-0.5147,-0.5147,0,-0.4179,-0.4253,-0.4291,-0.4403,-0.4459,-0.4525,-0.4606,-0.4654,-0.4694,-0.4752,-0.484,-0.4921,-0.5014,-0.504,-0.508,-0.5144,-0.5145,-0.5164,-0.5175,-0.5186,-0.5203,-0.5209,-0.5143,-0.5144,-0.5144,-0.5145,0,0,-0.4165,-0.4314,-0.4328,-0.4379,-0.449,-0.4548,-0.4615,-0.4706,-0.4747,-0.4824,-0.4883,-0.4988,-0.5007,-0.5062,-0.5109,-0.5147,-0.5176,-0.5162,-0.5165,-0.5163,-0.5252,-0.5239,-0.5245,-0.5199,-0.52,-0.5201,-0.5245,0,-0.4202,-0.4328,-0.4393,-0.4491,-0.456,-0.4618,-0.4677,-0.4751,-0.4806,-0.4872,-0.4932,-0.5006,-0.5024,-0.5058,-0.5098,-0.5164,-0.5195,-0.5161,-0.5255,-0.5258,-0.5233,-0.5253,-0.524,-0.5277,-0.5251,-0.5253,-0.5253,0,-0.4262,-0.4339,-0.4443,-0.4546,-0.4577,-0.4629,-0.4718,-0.478,-0.4864,-0.4901,-0.4962,-0.5008,-0.5081,-0.5083,-0.5185,-0.516,-0.5202,-0.524,-0.5243,-0.5256,-0.5258,-0.5269,-0.529,-0.5297,-0.5264,-0.5263,-0.5262,0,-0.4243,-0.4372,-0.4452,-0.4494,-0.4615,-0.465,-0.4702,-0.4786,-0.4836,-0.4912,-0.4946,-0.5029,-0.5075,-0.5137,-0.5205,-0.52,-0.5299,-0.5308,-0.5333,-0.5331,-0.5354,-0.5352,-0.5384,-0.5376,-0.5376,-0.5376,-0.5376,0,-0.4278,-0.434,-0.4445,-0.4495,-0.4565,-0.4639,-0.4706,-0.4763,-0.4836,-0.4897,-0.4951,-0.5006,-0.5091,-0.5156,-0.5208,-0.5285,-0.5305,-0.5337,-0.535,-0.5334,-0.533,-0.5364,-0.5364,-0.5378,-0.5377,-0.5377,-0.5377,0,-0.427,-0.4343,-0.4434,-0.4541,-0.4569,-0.4616,-0.4708,-0.4757,-0.4813,-0.4889,-0.4911,-0.5,-0.508,-0.5152,-0.5258,-0.5293,-0.5371,-0.5387,-0.5343,-0.5351,-0.5373,-0.5371,-0.5431,-0.5443,-0.5424,-0.5424,-0.5424,0,-0.4289,-0.4339,-0.445,-0.4495,-0.4546,-0.4617,-0.4669,-0.4741,-0.4793,-0.4891,-0.4929,-0.5012,-0.5084,-0.5208,-0.5282,-0.5363,-0.5382,-0.5397,-0.5395,-0.5376,-0.5385,-0.5382,-0.5388,-0.5397,-0.5397,-0.5397,-0.5397,0,-0.4315,-0.4349,-0.4421,-0.4506,-0.4566,-0.4636,-0.4708,-0.4741,-0.4827,-0.4882,-0.4964,-0.5019,-0.5127,-0.521,-0.5299,-0.5351,-0.5389,-0.5397,-0.5407,-0.5392,-0.5365,-0.5381,-0.5343,-0.5396,-0.5396,-0.5396,-0.5396,-0.5396,-0.4323,-0.437,-0.4456,-0.4535,-0.4596,-0.4661,-0.4713,-0.4776,-0.4846,-0.4941,-0.4978,-0.5062,-0.5144,-0.5267,-0.5319,-0.5385,-0.5393,-0.5407,-0.5412,-0.5415,-0.5412,-0.5352,-0.5401,-0.5401,-0.5402,-0.5402,-0.5402,0,-0.4354,-0.4412,-0.4483,-0.4582,-0.4643,-0.4672,-0.4753,-0.4802,-0.4876,-0.4949,-0.5018,-0.5112,-0.5192,-0.5271,-0.5355,-0.5392,-0.5412,-0.5412,-0.5411,-0.5423,-0.54,-0.5384,-0.5395,-0.5395,-0.5395,-0.5395,-0.5395,-0.5395,-0.4377,-0.4458,-0.4501,-0.4612,-0.4669,-0.4752,-0.4796,-0.4856,-0.4915,-0.5018,-0.5085,-0.5136,-0.5211,-0.5301,-0.5375,-0.5396,-0.5425,-0.5421,-0.5447,-0.5425,-0.5425,-0.5424,-0.5409,-0.5426,-0.5426,-0.5465,-0.5465,-0.5465]}]]